Time+07,TemperatureF,Dew PointF,Humidity,Sea Level PressureIn,VisibilityMPH,Wind Direction,Wind SpeedMPH,Gust SpeedMPH,PrecipitationIn,Events,Conditions,WindDirDegrees,DateUTC
12:00 AM,86.0,77.0,74,29.86,3.7,Calm,Calm,-,N/A,,Scattered Clouds,0,2012-10-13 17:00:00
12:30 AM,86.0,77.0,74,29.86,3.7,Calm,Calm,-,N/A,,Scattered Clouds,0,2012-10-13 17:30:00
1:00 AM,85,77,72,29.85,4,Calm,Calm,,,,Mist,,2012-10-13 18:00:00
1:00 AM,86.0,77.0,74,29.83,3.7,Calm,Calm,-,N/A,,Scattered Clouds,0,2012-10-13 18:00:00
1:30 AM,84.2,77.0,79,29.83,3.7,Calm,Calm,-,N/A,,Scattered Clouds,0,2012-10-13 18:30:00
2:00 AM,84.2,77.0,79,29.80,3.7,Calm,Calm,-,N/A,,Mostly Cloudy,0,2012-10-13 19:00:00
2:30 AM,84.2,77.0,79,29.80,3.7,Calm,Calm,-,N/A,,Mostly Cloudy,0,2012-10-13 19:30:00
3:00 AM,84.2,77.0,79,29.80,3.7,Calm,Calm,-,N/A,,Mostly Cloudy,0,2012-10-13 20:00:00
3:30 AM,84.2,77.0,79,29.80,3.7,Calm,Calm,-,N/A,,Mostly Cloudy,0,2012-10-13 20:30:00
4:00 AM,84.2,77.0,79,29.80,3.7,Calm,Calm,-,N/A,,Mostly Cloudy,0,2012-10-13 21:00:00
4:30 AM,82.4,71.6,70,29.83,5.0,SSE,2.3,-,N/A,,Mostly Cloudy,160,2012-10-13 21:30:00
5:00 AM,80.6,69.8,70,29.83,5.0,SSW,3.5,-,N/A,Thunderstorm,Thunderstorm,210,2012-10-13 22:00:00
5:30 AM,80.6,73.4,79,29.83,5.0,SW,2.3,-,N/A,,Mostly Cloudy,230,2012-10-13 22:30:00
6:00 AM,80.6,71.6,74,29.83,5.6,SW,2.3,-,N/A,,Mostly Cloudy,230,2012-10-13 23:00:00
6:30 AM,80.6,71.6,74,29.86,6.2,Calm,Calm,-,N/A,,Mostly Cloudy,0,2012-10-13 23:30:00
7:00 AM,80,72,70,29.87,6,Calm,Calm,,,,Partly Cloudy,,2012-10-14 00:00:00
7:00 AM,80.6,71.6,74,29.86,6.2,Calm,Calm,-,N/A,,Mostly Cloudy,0,2012-10-14 00:00:00
7:30 AM,82.4,73.4,74,29.86,6.2,Calm,Calm,-,N/A,,Mostly Cloudy,0,2012-10-14 00:30:00
8:00 AM,82.4,75.2,79,29.86,6.2,Calm,Calm,-,N/A,,Mostly Cloudy,0,2012-10-14 01:00:00
8:30 AM,84.2,73.4,70,29.89,6.2,Calm,Calm,-,N/A,,Mostly Cloudy,0,2012-10-14 01:30:00
9:00 AM,86.0,73.4,66,29.89,6.2,Calm,Calm,-,N/A,,Mostly Cloudy,0,2012-10-14 02:00:00
9:30 AM,87.8,73.4,62,29.89,6.2,Calm,Calm,-,N/A,,Mostly Cloudy,0,2012-10-14 02:30:00
10:00 AM,89.6,73.4,59,29.89,6.2,Calm,Calm,-,N/A,,Mostly Cloudy,0,2012-10-14 03:00:00
11:00 AM,89.6,73.4,59,29.89,6.2,Calm,Calm,-,N/A,,Mostly Cloudy,0,2012-10-14 04:00:00
11:30 AM,93.2,75.2,56,29.86,6.2,Calm,Calm,-,N/A,,Mostly Cloudy,0,2012-10-14 04:30:00
12:00 PM,93.2,75.2,56,29.86,6.2,Calm,Calm,-,N/A,,Mostly Cloudy,0,2012-10-14 05:00:00
12:30 PM,93.2,75.2,56,29.83,6.2,Calm,Calm,-,N/A,,Mostly Cloudy,0,2012-10-14 05:30:00
1:00 PM,94,76,46,29.83,6,SSE,5.8,,,,Haze,150,2012-10-14 06:00:00
1:00 PM,95.0,75.2,53,29.80,6.2,SSE,4.6,-,N/A,,Mostly Cloudy,150,2012-10-14 06:00:00
1:30 PM,95.0,75.2,53,29.80,5.6,SSE,3.5,-,N/A,,Mostly Cloudy,150,2012-10-14 06:30:00
2:00 PM,95.0,75.2,53,29.77,5.6,SSW,9.2,-,N/A,,Mostly Cloudy,210,2012-10-14 07:00:00
2:30 PM,91.4,73.4,55,29.77,5.6,WSW,10.4,-,N/A,,Mostly Cloudy,240,2012-10-14 07:30:00
3:00 PM,91.4,73.4,55,29.74,5.6,WSW,8.1,-,N/A,,Mostly Cloudy,240,2012-10-14 08:00:00
3:30 PM,91.4,73.4,55,29.74,5.6,WSW,8.1,-,N/A,,Mostly Cloudy,240,2012-10-14 08:30:00
4:00 PM,89.6,73.4,59,29.74,5.6,WSW,5.8,-,N/A,,Mostly Cloudy,240,2012-10-14 09:00:00
4:30 PM,89.6,73.4,59,29.74,5.6,WSW,5.8,-,N/A,,Mostly Cloudy,240,2012-10-14 09:30:00
5:00 PM,89.6,73.4,59,29.74,5.6,West,4.6,-,N/A,,Mostly Cloudy,270,2012-10-14 10:00:00
5:30 PM,89.6,73.4,59,29.74,5.6,West,4.6,-,N/A,,Mostly Cloudy,270,2012-10-14 10:30:00
6:00 PM,87.8,75.2,66,29.77,5.6,WNW,4.6,-,N/A,,Mostly Cloudy,300,2012-10-14 11:00:00
6:30 PM,87.8,75.2,66,29.77,5.6,West,3.5,-,N/A,,Mostly Cloudy,270,2012-10-14 11:30:00
7:00 PM,87,69,46,29.79,5,Calm,Calm,,,,Haze,,2012-10-14 12:00:00
7:00 PM,87.8,75.2,66,29.77,5.0,Calm,Calm,-,N/A,,Mostly Cloudy,0,2012-10-14 12:00:00
7:30 PM,87.8,75.2,66,29.80,5.0,Calm,Calm,-,N/A,,Mostly Cloudy,0,2012-10-14 12:30:00
8:00 PM,86.0,75.2,70,29.83,5.0,Calm,Calm,-,N/A,,Mostly Cloudy,0,2012-10-14 13:00:00
8:30 PM,86.0,75.2,70,29.83,5.0,Calm,Calm,-,N/A,,Mostly Cloudy,0,2012-10-14 13:30:00
9:00 PM,86.0,75.2,70,29.83,5.0,SE,15.0,-,N/A,Thunderstorm,Thunderstorm,140,2012-10-14 14:00:00
9:30 PM,84.2,77.0,79,29.86,5.0,Calm,Calm,-,N/A,Rain,Light Rain,0,2012-10-14 14:30:00
10:00 PM,86.0,75.2,70,29.86,5.6,Calm,Calm,-,N/A,,Mostly Cloudy,0,2012-10-14 15:00:00
10:30 PM,86.0,75.2,70,29.86,5.6,Calm,Calm,-,N/A,,Mostly Cloudy,0,2012-10-14 15:30:00
11:00 PM,84.2,77.0,79,29.86,5.6,Calm,Calm,-,N/A,,Mostly Cloudy,0,2012-10-14 16:00:00
11:30 PM,82.4,77.0,84,29.86,5.0,Calm,Calm,-,N/A,,Mostly Cloudy,0,2012-10-14 16:30:00